Cotes De Bretagne — FW3973 — position and weather

sailwx.info

Track history (hours):
 
Tides and Currents Weather Stations Pressure Air Temp Water Temp Dewpoint Dewpoint Depression Visibility Wind Speed Wind Dir Waves Ship Positions

Cotes De Bretagne

Last reported at 2014-Oct-25 10:33 UTC. Time now 2014-Oct-25 11:15 UTC.
Position N 46°33' W 001°59'.

Length 75 m; draft 4.2 m.

Type: Dredging. MMSI: 227003850.

Date/timePositionNaut miles runAvg speedWind from/ knotsBaromVisibWave heightAir tempDewpointWater temp
2014-Oct-25 10:33N 46°33' W 001°59'9 8.9
2014-Oct-25 09:33N 46°27' W 001°50'5 5.4
2014-Oct-25 08:33N 46°22' W 001°45'0 0.3
2014-Oct-25 07:33N 46°22' W 001°44'0 0.0
2014-Oct-25 06:33N 46°22' W 001°44'6 6.1
2014-Oct-25 05:33N 46°25' W 001°52'1110.9
2014-Oct-25 04:33N 46°33' W 002°03'7710.6
2014-Oct-24 21:16N 47°28' W 003°22'810.2
2014-Oct-24 20:29N 47°34' W 003°31'2010.4
2014-Oct-24 18:33N 47°46' W 003°55'1010.0
2014-Oct-24 17:33N 47°52' W 004°07'18 0.8
2014-Oct-23 18:33N 47°41' W 003°45'1110.8
2014-Oct-23 17:33N 47°47' W 003°59'9 9.4
2014-Oct-23 16:33N 47°54' W 004°08'5 4.7
2014-Oct-23 15:33N 47°58' W 004°06'34 5.6
2014-Oct-23 09:30N 47°34' W 003°31'1 0.1
2014-Oct-22 18:33N 47°35' W 003°33'1110.7
2014-Oct-22 17:33N 47°41' W 003°45'20 9.9
2014-Oct-22 15:33N 47°54' W 004°08'5 0.2
2014-Oct-21 19:33N 47°58' W 004°06'7 0.4
2014-Oct-21 00:33N 47°51' W 004°07'26 8.6
2014-Oct-20 21:33N 47°36' W 003°35'11 8.9
2014-Oct-20 20:18N 47°29' W 003°22'21 1.9
2014-Oct-20 09:19N 47°18' W 002°55'8 9.9
2014-Oct-20 08:33N 47°22' W 003°05'11 9.9
2014-Oct-20 07:26N 47°27' W 003°20'9 9.9
2014-Oct-20 06:33N 47°30' W 003°32'29 9.7
2014-Oct-20 03:33N 47°41' W 004°12'3010.0
2014-Oct-20 00:34N 48°01' W 004°45'9 8.8
2014-Oct-19 23:34N 48°10' W 004°45'10 9.5
2014-Oct-19 22:33N 48°20' W 004°48'8 8.3
2014-Oct-19 21:34N 48°28' W 004°50'9 9.4
2014-Oct-19 20:33N 48°37' W 004°49'2110.6
2014-Oct-19 18:33N 48°44' W 004°19'  
2014-Oct-15 17:34N 48°40' W 002°09'  
Track history (hours):
 
Tides and Currents Weather Stations Pressure Air Temp Water Temp Dewpoint Dewpoint Depression Visibility Wind Speed Wind Dir Waves Ship Positions

Cotes De Bretagne

Last reported at 2014-Oct-25 10:33 UTC. Time now 2014-Oct-25 11:15 UTC.
Position N 46°33' W 001°59'.

Length 75 m; draft 4.2 m.

Type: Dredging. MMSI: 227003850.

Date/timePositionNaut miles runAvg speedWind from/ knotsBaromVisibWave heightAir tempDewpointWater temp
2014-Oct-25 10:33N 46°33' W 001°59'9 8.9
2014-Oct-25 09:33N 46°27' W 001°50'5 5.4
2014-Oct-25 08:33N 46°22' W 001°45'0 0.3
2014-Oct-25 07:33N 46°22' W 001°44'0 0.0
2014-Oct-25 06:33N 46°22' W 001°44'6 6.1
2014-Oct-25 05:33N 46°25' W 001°52'1110.9
2014-Oct-25 04:33N 46°33' W 002°03'7710.6
2014-Oct-24 21:16N 47°28' W 003°22'810.2
2014-Oct-24 20:29N 47°34' W 003°31'2010.4
2014-Oct-24 18:33N 47°46' W 003°55'1010.0
2014-Oct-24 17:33N 47°52' W 004°07'18 0.8
2014-Oct-23 18:33N 47°41' W 003°45'1110.8
2014-Oct-23 17:33N 47°47' W 003°59'9 9.4
2014-Oct-23 16:33N 47°54' W 004°08'5 4.7
2014-Oct-23 15:33N 47°58' W 004°06'34 5.6
2014-Oct-23 09:30N 47°34' W 003°31'1 0.1
2014-Oct-22 18:33N 47°35' W 003°33'1110.7
2014-Oct-22 17:33N 47°41' W 003°45'20 9.9
2014-Oct-22 15:33N 47°54' W 004°08'5 0.2
2014-Oct-21 19:33N 47°58' W 004°06'7 0.4
2014-Oct-21 00:33N 47°51' W 004°07'26 8.6
2014-Oct-20 21:33N 47°36' W 003°35'11 8.9
2014-Oct-20 20:18N 47°29' W 003°22'21 1.9
2014-Oct-20 09:19N 47°18' W 002°55'8 9.9
2014-Oct-20 08:33N 47°22' W 003°05'11 9.9
2014-Oct-20 07:26N 47°27' W 003°20'9 9.9
2014-Oct-20 06:33N 47°30' W 003°32'29 9.7
2014-Oct-20 03:33N 47°41' W 004°12'3010.0
2014-Oct-20 00:34N 48°01' W 004°45'9 8.8
2014-Oct-19 23:34N 48°10' W 004°45'10 9.5
2014-Oct-19 22:33N 48°20' W 004°48'8 8.3
2014-Oct-19 21:34N 48°28' W 004°50'9 9.4
2014-Oct-19 20:33N 48°37' W 004°49'2110.6
2014-Oct-19 18:33N 48°44' W 004°19'  
2014-Oct-15 17:34N 48°40' W 002°09'  

Dump ship's entire track history